Location: B?lite?ti
(46.2833°N, 22.7333°E)
Time: 04:49:46
(UTC+00:00)

Cosmos 1092 Rocket - Pass Details

Date: 24 January 2021
Orbit: 954 x 995 km, 83.0° (Epoch: 26 February)

Event Time Altitude Azimuth Distance (km) Brightness Sun altitude
Rises 16:47:06 0° 178° (S) 3,649 7.1 -14.6°
Reaches altitude 10° 16:49:36 10° 176° (S) 2,700 6.4 -15.0°
Maximum altitude 16:55:44 69° 94° (E) 1,024 3.9 -16.1°
Drops below altitude 10° 17:01:51 10° 13° (NNE) 2,698 6.1 -17.1°
Sets 17:04:21 0° 11° (N) 3,645 6.8 -17.5°
